Location: Unspecified
(0.0000°N, 0.0000°E)
Time: 19:13:07
(UTC+00:00)

CZ-3C DEB - Pass Details

Date: 14 March 2026
Orbit: 544 x 34777 km, 21.8° (Epoch: 16 April)

Event Time Altitude Azimuth Distance (km) Brightness Sun altitude
Rises 12:25:41 0° 245° (WSW) 8,862 ? 85.2°
Reaches altitude 10° 12:29:54 10° 241° (WSW) 9,066 ? 84.3°
Maximum altitude 15:06:04 71° 220° (SW) 30,195 ? 45.7°
Enters shadow 21:57:11 42° 3° (N) 5,394 ? -57.0°
